HZ101 OEKF-OESD

Flight info

Callsign HZ101
Flight time N/A
Altitude 22000
Route MKF DCT LABIS T503 RARLO/N0429F210 B417 KSB
Aircraft B737/M-SDE2E3FGHIRWXY/LB1

Departure

Time 2026-04-20 11:54
Airport King Faisal Air Academy Airport (OEKF)

Arrival

Time N/A
Airport OESD
Time Latitude Longitude Altitude Speed Heading
2026-04-20 11:35 26.09000 45.20511 2436 ft 0 kts 59°
2026-04-20 11:47 26.09000 45.20510 2436 ft 2 kts 59°
2026-04-20 11:48 26.08986 45.20484 2432 ft 4 kts 59°
2026-04-20 11:48 26.08970 45.20463 2434 ft 4 kts
2026-04-20 11:48 26.08945 45.20468 2434 ft 1 kts 333°
2026-04-20 11:48 26.08945 45.20469 2438 ft 0 kts 333°
2026-04-20 11:50 26.08946 45.20468 2436 ft 0 kts 333°
2026-04-20 11:50 26.08961 45.20459 2435 ft 5 kts 329°
2026-04-20 11:50 26.09015 45.20422 2436 ft 13 kts 328°
2026-04-20 11:50 26.09110 45.20359 2436 ft 18 kts 330°
2026-04-20 11:51 26.09232 45.20282 2438 ft 20 kts 330°
2026-04-20 11:51 26.09321 45.20226 2437 ft 11 kts 330°
2026-04-20 11:51 26.09380 45.20188 2451 ft 11 kts 329°
2026-04-20 11:51 26.09428 45.20131 2445 ft 11 kts 268°
2026-04-20 11:52 26.09393 45.20058 2445 ft 9 kts 240°
2026-04-20 11:52 26.09395 45.20014 2448 ft 5 kts 326°
2026-04-20 11:52 26.09446 45.19987 2448 ft 11 kts 334°
2026-04-20 11:52 26.09535 45.19936 2446 ft 17 kts 331°
2026-04-20 11:53 26.09644 45.19863 2445 ft 18 kts 329°
2026-04-20 11:53 26.09743 45.19796 2439 ft 15 kts 327°
2026-04-20 11:53 26.09752 45.19709 2434 ft 15 kts 240°
2026-04-20 11:53 26.09713 45.19632 2435 ft 7 kts 242°
2026-04-20 11:54 26.09704 45.19619 2440 ft 1 kts 201°
2026-04-20 11:54 26.09689 45.19629 2438 ft 5 kts 150°
2026-04-20 11:54 26.09616 45.19675 2442 ft 31 kts 150°
2026-04-20 11:54 26.09219 45.19928 2450 ft 99 kts 150°
2026-04-20 11:55 26.08452 45.20422 2467 ft 149 kts 151°
2026-04-20 11:55 26.07532 45.20988 2980 ft 156 kts 149°
2026-04-20 11:55 26.06537 45.21591 3509 ft 168 kts 150°
2026-04-20 11:55 26.05466 45.22226 4037 ft 179 kts 150°
2026-04-20 11:56 26.04355 45.23015 4353 ft 203 kts 133°
2026-04-20 11:56 26.03701 45.24468 4550 ft 224 kts 100°
2026-04-20 11:56 26.03897 45.26247 4782 ft 243 kts 70°
2026-04-20 11:56 26.04662 45.27960 5163 ft 252 kts 64°
2026-04-20 11:57 26.05546 45.29671 5587 ft 262 kts 57°
2026-04-20 11:57 26.06997 45.31008 5875 ft 284 kts 27°
2026-04-20 11:57 26.08955 45.31461 6584 ft 293 kts 359°
2026-04-20 11:57 26.10978 45.31121 7452 ft 296 kts 349°
2026-04-20 11:58 26.13010 45.30647 8236 ft 301 kts 348°
2026-04-20 11:58 26.15064 45.30211 8992 ft 307 kts 350°
2026-04-20 11:58 26.17172 45.29734 9818 ft 310 kts 348°
2026-04-20 11:58 26.19313 45.29246 10451 ft 323 kts 348°
2026-04-20 11:59 26.21617 45.28766 10699 ft 347 kts 347°
2026-04-20 11:59 26.24041 45.28315 11125 ft 363 kts 348°
2026-04-20 11:59 26.26618 45.27876 11329 ft 384 kts 348°
2026-04-20 11:59 26.29294 45.27458 11877 ft 391 kts 348°
2026-04-20 12:00 26.31946 45.26807 12564 ft 389 kts 335°
2026-04-20 12:00 26.34361 45.25514 13364 ft 383 kts 323°
2026-04-20 12:00 26.36467 45.23738 14072 ft 379 kts 311°
2026-04-20 12:00 26.38378 45.21705 14805 ft 381 kts 310°
2026-04-20 12:01 26.39644 45.20343 15356 ft 381 kts 310°
2026-04-20 12:01 26.41546 45.18301 16261 ft 379 kts 310°
2026-04-20 12:01 26.43446 45.16272 17210 ft 376 kts 310°
2026-04-20 12:01 26.45333 45.14267 18132 ft 374 kts 310°
2026-04-20 12:02 26.47217 45.12272 19005 ft 373 kts 310°
2026-04-20 12:02 26.49096 45.10285 19910 ft 371 kts 309°
2026-04-20 12:02 26.50962 45.08314 20821 ft 368 kts 309°
2026-04-20 12:02 26.52824 45.06348 21549 ft 368 kts 310°
2026-04-20 12:03 26.54673 45.04394 21876 ft 363 kts 310°
2026-04-20 12:03 26.56538 45.02415 21918 ft 379 kts 310°
2026-04-20 12:03 26.58491 45.00341 21932 ft 395 kts 310°
2026-04-20 12:03 26.60524 44.98188 21935 ft 409 kts 310°
2026-04-20 12:04 26.62624 44.95969 21933 ft 422 kts 310°
2026-04-20 12:04 26.64787 44.93689 21931 ft 432 kts 311°
2026-04-20 12:04 26.66965 44.91394 21927 ft 440 kts 310°
2026-04-20 12:04 26.69194 44.89046 21913 ft 440 kts 311°
2026-04-20 12:05 26.71409 44.86712 21904 ft 435 kts 311°
2026-04-20 12:05 26.73604 44.84394 21909 ft 433 kts 310°
2026-04-20 12:05 26.75794 44.82075 21914 ft 432 kts 310°
2026-04-20 12:05 26.77978 44.79758 21913 ft 433 kts 310°
2026-04-20 12:06 26.80162 44.77436 21915 ft 434 kts 310°
2026-04-20 12:06 26.82358 44.75096 21917 ft 436 kts 310°
2026-04-20 12:06 26.84557 44.72752 21917 ft 437 kts 310°
2026-04-20 12:06 26.86761 44.70400 21918 ft 438 kts 310°
2026-04-20 12:07 26.88966 44.68048 21917 ft 439 kts 310°
2026-04-20 12:07 26.91182 44.65685 21915 ft 439 kts 310°
2026-04-20 12:07 26.93518 44.63453 21899 ft 448 kts 322°
2026-04-20 12:07 26.96423 44.62064 21926 ft 463 kts 341°
2026-04-20 12:08 26.99670 44.61705 21918 ft 476 kts 359°
2026-04-20 12:08 27.02927 44.62438 21831 ft 478 kts 15°
2026-04-20 12:08 27.05852 44.64191 21222 ft 479 kts 36°
2026-04-20 12:08 27.08238 44.66776 20610 ft 474 kts 46°
2026-04-20 12:09 27.10445 44.69494 19919 ft 469 kts 47°
2026-04-20 12:09 27.12663 44.72163 19231 ft 465 kts 46°
2026-04-20 12:09 27.14898 44.74774 18472 ft 463 kts 45°
2026-04-20 12:09 27.17114 44.77322 17750 ft 460 kts 45°
2026-04-20 12:10 27.19373 44.79910 17055 ft 455 kts 45°
2026-04-20 12:10 27.21548 44.82403 16379 ft 451 kts 45°
2026-04-20 12:10 27.23736 44.84915 15700 ft 447 kts 44°
2026-04-20 12:10 27.25895 44.87398 15024 ft 442 kts 44°
2026-04-20 12:11 27.28034 44.89865 14354 ft 438 kts 44°
2026-04-20 12:11 27.30148 44.92305 13716 ft 433 kts 44°
2026-04-20 12:11 27.32236 44.94717 13094 ft 428 kts 44°
2026-04-20 12:11 27.34327 44.97134 12441 ft 424 kts 44°
2026-04-20 12:12 27.36374 44.99501 11788 ft 420 kts 44°
2026-04-20 12:12 27.38398 45.01843 11142 ft 415 kts 44°
2026-04-20 12:12 27.40360 45.04114 10857 ft 402 kts 45°
2026-04-20 12:12 27.42269 45.06326 10652 ft 386 kts 45°
2026-04-20 12:13 27.44103 45.08452 10494 ft 372 kts 45°
2026-04-20 12:13 27.45872 45.10502 10341 ft 359 kts 45°
2026-04-20 12:13 27.47588 45.12492 10184 ft 348 kts 45°
2026-04-20 12:13 27.49245 45.14416 10042 ft 337 kts 46°
2026-04-20 12:14 27.50847 45.16276 9978 ft 324 kts 46°
2026-04-20 12:14 27.52388 45.18065 9732 ft 318 kts 46°
2026-04-20 12:14 27.53948 45.19880 9242 ft 323 kts 47°
2026-04-20 12:14 27.55514 45.21698 8859 ft 322 kts 47°
2026-04-20 12:15 27.57092 45.23483 8490 ft 321 kts 45°
2026-04-20 12:15 27.58725 45.25188 8126 ft 319 kts 44°
2026-04-20 12:15 27.60359 45.26857 7838 ft 315 kts 44°
2026-04-20 12:15 27.61962 45.28492 7567 ft 306 kts 44°
2026-04-20 12:16 27.63515 45.30081 7277 ft 297 kts 45°
2026-04-20 12:16 27.65023 45.31631 6988 ft 290 kts 45°
2026-04-20 12:16 27.66487 45.33142 6712 ft 281 kts 45°
2026-04-20 12:16 27.67910 45.34612 6456 ft 273 kts 46°
2026-04-20 12:17 27.69306 45.36059 6214 ft 272 kts 46°
2026-04-20 12:17 27.70694 45.37499 5978 ft 270 kts 46°
2026-04-20 12:17 27.72067 45.38923 5815 ft 265 kts 46°
2026-04-20 12:17 27.73409 45.40316 5663 ft 259 kts 46°
2026-04-20 12:18 27.74718 45.41676 5505 ft 253 kts 46°
2026-04-20 12:18 27.76000 45.43007 5350 ft 248 kts 46°
2026-04-20 12:18 27.77257 45.44311 5198 ft 243 kts 46°
2026-04-20 12:18 27.78490 45.45592 5059 ft 238 kts 46°
2026-04-20 12:19 27.79678 45.46827 5044 ft 231 kts 46°
2026-04-20 12:19 27.80840 45.48069 5013 ft 228 kts 53°
2026-04-20 12:19 27.81497 45.49622 5013 ft 217 kts 87°
2026-04-20 12:19 27.81266 45.51252 5007 ft 210 kts 121°
2026-04-20 12:20 27.80436 45.52598 5007 ft 208 kts 132°
2026-04-20 12:20 27.79512 45.53825 5002 ft 208 kts 133°
2026-04-20 12:20 27.78563 45.55061 4892 ft 209 kts 133°
2026-04-20 12:20 27.77604 45.56305 4677 ft 211 kts 133°
2026-04-20 12:21 27.76636 45.57547 4438 ft 210 kts 133°
2026-04-20 12:21 27.75669 45.58778 4182 ft 208 kts 133°
2026-04-20 12:21 27.74889 45.60128 3898 ft 209 kts 108°
2026-04-20 12:21 27.74910 45.61754 3654 ft 211 kts 73°
2026-04-20 12:22 27.75739 45.63088 3425 ft 207 kts 46°
2026-04-20 12:22 27.76772 45.64177 3196 ft 200 kts 45°
2026-04-20 12:22 27.77789 45.65210 3039 ft 194 kts 38°
2026-04-20 12:22 27.79050 45.65686 3010 ft 195 kts 359°
2026-04-20 12:23 27.80353 45.65361 3007 ft 190 kts 341°
2026-04-20 12:23 27.81409 45.64528 3009 ft 185 kts 309°
2026-04-20 12:23 27.82233 45.63397 3011 ft 185 kts 310°
2026-04-20 12:23 27.83050 45.62305 2994 ft 180 kts 310°
2026-04-20 12:24 27.83850 45.61227 2923 ft 181 kts 310°
2026-04-20 12:24 27.84658 45.60135 2697 ft 179 kts 310°
2026-04-20 12:24 27.85440 45.59081 2470 ft 170 kts 310°
2026-04-20 12:24 27.86172 45.58092 2249 ft 159 kts 310°
2026-04-20 12:25 27.86865 45.57157 2038 ft 153 kts 310°
2026-04-20 12:25 27.87544 45.56240 1844 ft 153 kts 310°
2026-04-20 12:25 27.88234 45.55308 1653 ft 153 kts 310°
2026-04-20 12:25 27.88910 45.54400 1449 ft 150 kts 310°
2026-04-20 12:26 27.89559 45.53532 1366 ft 135 kts 310°
2026-04-20 12:26 27.90132 45.52763 1366 ft 139 kts 310°
2026-04-20 12:26 27.90903 45.51768 1796 ft 177 kts 313°
2026-04-20 12:26 27.91744 45.50757 2420 ft 180 kts 313°
2026-04-20 12:27 27.92604 45.49702 3027 ft 190 kts 314°
2026-04-20 12:27 27.93550 45.48530 3166 ft 211 kts 311°
2026-04-20 12:27 27.94500 45.47295 3063 ft 204 kts 310°
2026-04-20 12:27 27.95108 45.45910 2991 ft 195 kts 275°
2026-04-20 12:28 27.94847 45.44475 3001 ft 191 kts 236°
2026-04-20 12:28 27.93974 45.43313 3007 ft 194 kts 224°
2026-04-20 12:28 27.93042 45.42226 3004 ft 195 kts 224°
2026-04-20 12:28 27.92084 45.41114 2992 ft 195 kts 224°
2026-04-20 12:29 27.91004 45.40241 2983 ft 190 kts 194°
2026-04-20 12:29 27.89748 45.40282 2990 ft 184 kts 156°
2026-04-20 12:29 27.88752 45.41181 3011 ft 182 kts 132°
2026-04-20 12:29 27.88367 45.41661 3000 ft 183 kts 131°
2026-04-20 12:30 27.87601 45.42644 2996 ft 184 kts 131°
2026-04-20 12:30 27.86737 45.43764 3018 ft 199 kts 131°
2026-04-20 12:30 27.85804 45.44978 3006 ft 208 kts 130°
2026-04-20 12:30 27.84851 45.46220 2994 ft 208 kts 130°
2026-04-20 12:31 27.83907 45.47452 2983 ft 207 kts 130°
2026-04-20 12:31 27.82966 45.48681 2991 ft 207 kts 130°
2026-04-20 12:31 27.82027 45.49907 2996 ft 206 kts 130°
2026-04-20 12:31 27.81087 45.51132 3001 ft 206 kts 130°
2026-04-20 12:32 27.80147 45.52356 3007 ft 207 kts 130°
2026-04-20 12:32 27.79204 45.53584 3006 ft 206 kts 130°
2026-04-20 12:32 27.78280 45.54788 2991 ft 200 kts 130°
2026-04-20 12:32 27.77379 45.55960 2993 ft 195 kts 130°
2026-04-20 12:33 27.76488 45.57115 3010 ft 196 kts 130°
2026-04-20 12:33 27.75616 45.58305 3006 ft 197 kts 121°
2026-04-20 12:33 27.75299 45.59777 3001 ft 197 kts 84°
2026-04-20 12:33 27.75864 45.61165 3011 ft 199 kts 49°
2026-04-20 12:34 27.76846 45.62252 3009 ft 195 kts 46°
2026-04-20 12:34 27.77797 45.63288 2987 ft 185 kts 44°
2026-04-20 12:34 27.78922 45.63902 2993 ft 182 kts
2026-04-20 12:34 27.80170 45.63666 3020 ft 185 kts 345°
2026-04-20 12:35 27.81414 45.63238 3017 ft 189 kts 344°
2026-04-20 12:35 27.82641 45.62680 2996 ft 194 kts 324°
2026-04-20 12:35 27.83539 45.61574 3013 ft 189 kts 310°
2026-04-20 12:35 27.84386 45.60461 2805 ft 184 kts 310°
2026-04-20 12:36 27.85194 45.59384 2566 ft 175 kts 310°
2026-04-20 12:36 27.85972 45.58340 2339 ft 173 kts 310°
2026-04-20 12:36 27.86719 45.57337 2122 ft 163 kts 310°
2026-04-20 12:36 27.87425 45.56390 1907 ft 154 kts 310°
2026-04-20 12:37 27.88104 45.55473 1702 ft 152 kts 310°
2026-04-20 12:37 27.88787 45.54560 1483 ft 149 kts 310°
2026-04-20 12:37 27.89442 45.53688 1366 ft 137 kts 310°
2026-04-20 12:37 27.90060 45.52860 1372 ft 164 kts 310°
2026-04-20 12:38 27.90896 45.51751 2016 ft 206 kts 311°
2026-04-20 12:38 27.91829 45.50527 2552 ft 208 kts 311°
2026-04-20 12:38 27.92742 45.49324 2651 ft 201 kts 311°
2026-04-20 12:38 27.93666 45.48103 2771 ft 212 kts 311°
2026-04-20 12:39 27.95131 45.45205 2940 ft 215 kts 270°
2026-04-20 12:39 27.94736 45.43600 2995 ft 216 kts 234°
2026-04-20 12:39 27.93601 45.42531 3001 ft 216 kts 200°
2026-04-20 12:40 27.92107 45.42279 3002 ft 220 kts 176°
2026-04-20 12:40 27.90685 45.42820 2992 ft 218 kts 143°
2026-04-20 12:40 27.89785 45.44168 2999 ft 218 kts 110°
2026-04-20 12:40 27.89417 45.45835 2999 ft 220 kts 101°
2026-04-20 12:41 27.89173 45.47537 2993 ft 217 kts 99°
2026-04-20 12:41 27.88947 45.49192 2982 ft 209 kts 99°
2026-04-20 12:41 27.88726 45.50799 2981 ft 205 kts 99°
2026-04-20 12:41 27.88505 45.52383 2999 ft 205 kts 99°
2026-04-20 12:42 27.88280 45.53980 3013 ft 207 kts 99°
2026-04-20 12:42 27.88051 45.55595 3011 ft 209 kts 101°
2026-04-20 12:42 27.87444 45.57055 3002 ft 208 kts 134°
2026-04-20 12:42 27.86193 45.57845 3000 ft 209 kts 167°
2026-04-20 12:43 27.84753 45.57760 2998 ft 211 kts 198°
2026-04-20 12:43 27.83567 45.56801 2998 ft 215 kts 232°
2026-04-20 12:43 27.83057 45.55230 3002 ft 218 kts 266°
2026-04-20 12:43 27.83235 45.53525 2990 ft 223 kts 288°
2026-04-20 12:44 27.84034 45.52020 3017 ft 226 kts 311°
2026-04-20 12:44 27.85072 45.50688 3002 ft 225 kts 311°
2026-04-20 12:44 27.86085 45.49368 3002 ft 220 kts 311°
2026-04-20 12:44 27.87080 45.48065 2994 ft 218 kts 311°
2026-04-20 12:45 27.88078 45.46771 3002 ft 219 kts 315°
2026-04-20 12:45 27.89369 45.45926 2991 ft 216 kts 352°
2026-04-20 12:45 27.90827 45.46120 3002 ft 212 kts 27°
2026-04-20 12:45 27.91923 45.47167 2999 ft 208 kts 59°
2026-04-20 12:46 27.92345 45.48699 3001 ft 205 kts 91°
2026-04-20 12:46 27.92013 45.50249 3001 ft 205 kts 119°
2026-04-20 12:46 27.91461 45.51116 3005 ft 206 kts 130°
2026-04-20 12:46 27.90524 45.52341 3004 ft 207 kts 130°
2026-04-20 12:47 27.89581 45.53577 3020 ft 209 kts 130°
2026-04-20 12:47 27.88623 45.54834 3015 ft 212 kts 130°
2026-04-20 12:47 27.87613 45.56051 2993 ft 212 kts 143°
2026-04-20 12:47 27.86248 45.56561 3004 ft 209 kts 180°
2026-04-20 12:48 27.84480 45.55783 3006 ft 213 kts 222°
2026-04-20 12:48 27.83883 45.54876 3006 ft 216 kts 245°
2026-04-20 12:48 27.83663 45.53211 3005 ft 219 kts 280°
2026-04-20 12:48 27.84308 45.51670 3018 ft 219 kts 308°
2026-04-20 12:49 27.85301 45.50350 3008 ft 221 kts 311°
2026-04-20 12:49 27.86316 45.49035 3011 ft 223 kts 311°
2026-04-20 12:49 27.87336 45.47707 3011 ft 225 kts 311°
2026-04-20 12:49 27.88398 45.46408 2990 ft 224 kts 322°
2026-04-20 12:50 27.89813 45.45834 2995 ft 216 kts
2026-04-20 12:50 27.91219 45.46305 2997 ft 212 kts 37°
2026-04-20 12:50 27.92146 45.47529 3005 ft 209 kts 68°
2026-04-20 12:50 27.92356 45.49129 2999 ft 208 kts 100°
2026-04-20 12:51 27.91812 45.50626 2996 ft 208 kts 127°
2026-04-20 12:51 27.90879 45.51877 3003 ft 209 kts 130°
2026-04-20 12:51 27.89926 45.53126 3009 ft 210 kts 130°
2026-04-20 12:51 27.88968 45.54383 3011 ft 212 kts 130°
2026-04-20 12:52 27.87997 45.55647 3004 ft 213 kts 133°
2026-04-20 12:52 27.86761 45.56498 2998 ft 210 kts 168°
2026-04-20 12:52 27.85324 45.56374 2999 ft 211 kts 201°
2026-04-20 12:52 27.84156 45.55384 3006 ft 215 kts 233°
2026-04-20 12:53 27.83638 45.53809 3005 ft 218 kts 267°
2026-04-20 12:53 27.84014 45.52170 3006 ft 219 kts 302°
2026-04-20 12:53 27.84956 45.50814 3017 ft 220 kts 311°
2026-04-20 12:53 27.85965 45.49501 3009 ft 222 kts 311°
2026-04-20 12:54 27.86985 45.48178 3010 ft 224 kts 311°
2026-04-20 12:54 27.88022 45.46853 3004 ft 225 kts 317°
2026-04-20 12:54 27.89387 45.46126 3001 ft 217 kts 356°
2026-04-20 12:54 27.90856 45.46359 2994 ft 214 kts 25°
2026-04-20 12:55 27.92026 45.47354 3001 ft 211 kts 54°
2026-04-20 12:55 27.92613 45.48850 3001 ft 209 kts 83°
2026-04-20 12:55 27.92472 45.50463 2995 ft 208 kts 112°
2026-04-20 12:55 27.92027 45.51994 3067 ft 206 kts 102°
2026-04-20 12:56 27.91764 45.53611 3019 ft 211 kts 100°
2026-04-20 12:56 27.91516 45.55248 3010 ft 212 kts 100°
2026-04-20 12:56 27.91265 45.56898 3009 ft 213 kts 100°
2026-04-20 12:56 27.91014 45.58549 3008 ft 212 kts 100°
2026-04-20 12:57 27.90766 45.60179 2993 ft 208 kts 100°
2026-04-20 12:57 27.90520 45.61783 2997 ft 207 kts 100°
2026-04-20 12:57 27.90274 45.63387 3005 ft 208 kts 101°
2026-04-20 12:57 27.90025 45.65000 3008 ft 208 kts 100°
2026-04-20 12:58 27.89774 45.66615 3010 ft 209 kts 100°
2026-04-20 12:58 27.89522 45.68240 3009 ft 210 kts 101°
2026-04-20 12:58 27.89269 45.69873 3007 ft 211 kts 101°
2026-04-20 12:58 27.89015 45.71508 3006 ft 212 kts 100°
2026-04-20 12:59 27.88762 45.73129 3001 ft 212 kts 100°
2026-04-20 12:59 27.88504 45.74782 3001 ft 211 kts 101°
2026-04-20 12:59 27.88250 45.76410 3000 ft 210 kts 100°
2026-04-20 12:59 27.87999 45.78009 2996 ft 209 kts 101°
2026-04-20 13:00 27.87747 45.79618 2997 ft 207 kts 101°
2026-04-20 13:00 27.87496 45.81216 2997 ft 206 kts 101°
2026-04-20 13:00 27.86921 45.82661 2995 ft 203 kts 134°
2026-04-20 13:00 27.85715 45.83453 3014 ft 205 kts 164°
2026-04-20 13:01 27.84324 45.83592 3022 ft 210 kts 179°
2026-04-20 13:01 27.82858 45.83417 3009 ft 214 kts 191°
2026-04-20 13:01 27.81425 45.82938 3013 ft 216 kts 198°
2026-04-20 13:01 27.80023 45.82328 3007 ft 217 kts 200°
2026-04-20 13:02 27.78627 45.81679 3004 ft 217 kts 201°
2026-04-20 13:02 27.77246 45.80982 3000 ft 217 kts 204°
2026-04-20 13:02 27.75896 45.80220 2997 ft 217 kts 207°
2026-04-20 13:02 27.74597 45.79360 2995 ft 216 kts 211°
2026-04-20 13:03 27.73482 45.78239 2988 ft 217 kts 238°
2026-04-20 13:03 27.73115 45.76621 3003 ft 213 kts 273°
2026-04-20 13:03 27.73625 45.75116 2995 ft 205 kts 311°
2026-04-20 13:03 27.74564 45.73906 3005 ft 207 kts 306°
2026-04-20 13:04 27.75413 45.72579 3013 ft 210 kts 309°
2026-04-20 13:04 27.76357 45.71319 3029 ft 209 kts 310°
2026-04-20 13:04 27.77296 45.70073 3014 ft 206 kts 310°
2026-04-20 13:04 27.78198 45.68861 3010 ft 199 kts 310°
2026-04-20 13:05 27.79077 45.67674 3013 ft 197 kts 310°
2026-04-20 13:05 27.79961 45.66480 3007 ft 199 kts 310°
2026-04-20 13:05 27.80849 45.65281 2999 ft 199 kts 310°
2026-04-20 13:05 27.81739 45.64078 3000 ft 200 kts 310°
2026-04-20 13:06 27.82616 45.62893 2995 ft 198 kts 310°
2026-04-20 13:06 27.83467 45.61743 2989 ft 184 kts 310°
2026-04-20 13:06 27.84270 45.60660 2792 ft 177 kts 310°
2026-04-20 13:06 27.85045 45.59614 2587 ft 168 kts 310°
2026-04-20 13:07 27.85764 45.58643 2365 ft 156 kts 310°
2026-04-20 13:07 27.86449 45.57717 2163 ft 152 kts 310°
2026-04-20 13:07 27.87131 45.56794 1971 ft 153 kts 310°
2026-04-20 13:07 27.87816 45.55869 1772 ft 154 kts 310°
2026-04-20 13:08 27.88501 45.54947 1575 ft 153 kts 310°
2026-04-20 13:08 27.89184 45.54034 1380 ft 151 kts 310°
2026-04-20 13:08 27.89811 45.53196 1363 ft 129 kts 310°
2026-04-20 13:08 27.90417 45.52384 1368 ft 163 kts 311°
2026-04-20 13:09 27.91252 45.51333 1952 ft 181 kts 313°
2026-04-20 13:09 27.92063 45.50298 2578 ft 178 kts 311°
2026-04-20 13:09 27.92957 45.49122 2818 ft 213 kts 310°
2026-04-20 13:09 27.93934 45.47812 2928 ft 220 kts 306°
2026-04-20 13:10 27.94476 45.46224 2930 ft 219 kts 271°
2026-04-20 13:10 27.94133 45.44590 2948 ft 215 kts 236°
2026-04-20 13:10 27.93043 45.43489 2994 ft 212 kts 201°
2026-04-20 13:10 27.91602 45.43297 3007 ft 211 kts 167°
2026-04-20 13:11 27.90325 45.44063 2998 ft 211 kts 133°
2026-04-20 13:11 27.89632 45.45502 3004 ft 212 kts 104°
2026-04-20 13:11 27.89358 45.47144 3010 ft 213 kts 100°
2026-04-20 13:11 27.89106 45.48801 2993 ft 213 kts 100°
2026-04-20 13:12 27.88857 45.50436 2982 ft 209 kts 101°
2026-04-20 13:12 27.88608 45.52040 2987 ft 206 kts 101°
2026-04-20 13:12 27.88359 45.53635 2991 ft 208 kts 101°
2026-04-20 13:12 27.88106 45.55248 2997 ft 209 kts 101°
2026-04-20 13:13 27.87625 45.56786 2981 ft 210 kts 128°
2026-04-20 13:13 27.86450 45.57721 2997 ft 210 kts 162°
2026-04-20 13:13 27.84996 45.57779 3006 ft 213 kts 194°
2026-04-20 13:13 27.83725 45.56929 2994 ft 218 kts 227°
2026-04-20 13:14 27.83096 45.55385 2985 ft 221 kts 265°
2026-04-20 13:14 27.83254 45.53664 3003 ft 222 kts 284°
2026-04-20 13:14 27.83980 45.52145 2999 ft 221 kts 312°
2026-04-20 13:14 27.85006 45.50849 2997 ft 222 kts 311°
2026-04-20 13:15 27.86018 45.49530 2996 ft 222 kts 311°
2026-04-20 13:15 27.87031 45.48204 2995 ft 223 kts 311°
2026-04-20 13:15 27.88046 45.46878 2992 ft 223 kts 313°
2026-04-20 13:15 27.89320 45.45945 2984 ft 220 kts 349°
2026-04-20 13:16 27.90796 45.46084 2997 ft 214 kts 26°
2026-04-20 13:16 27.91916 45.47119 2998 ft 208 kts 59°
2026-04-20 13:16 27.92356 45.48641 2998 ft 205 kts 90°
2026-04-20 13:16 27.92046 45.50189 2993 ft 204 kts 118°
2026-04-20 13:17 27.91252 45.51513 3005 ft 204 kts 127°
2026-04-20 13:17 27.90312 45.52731 3003 ft 207 kts 132°
2026-04-20 13:17 27.89384 45.53978 2986 ft 209 kts 119°
2026-04-20 13:17 27.89129 45.55564 3002 ft 210 kts 81°
2026-04-20 13:18 27.89747 45.57047 3008 ft 212 kts 53°
2026-04-20 13:18 27.90732 45.58306 3000 ft 215 kts 48°
2026-04-20 13:18 27.91767 45.59534 3001 ft 216 kts 47°
2026-04-20 13:18 27.92809 45.60765 2998 ft 217 kts 48°
2026-04-20 13:19 27.93851 45.62000 2991 ft 217 kts 48°
2026-04-20 13:19 27.94891 45.63241 2990 ft 219 kts 48°
2026-04-20 13:19 27.95988 45.64558 3014 ft 239 kts 48°
2026-04-20 13:19 27.97146 45.65952 3009 ft 247 kts 48°
2026-04-20 13:20 27.98324 45.67371 3002 ft 247 kts 48°
2026-04-20 13:20 27.99493 45.68798 2989 ft 247 kts 50°
2026-04-20 13:20 28.00577 45.70260 2989 ft 245 kts 52°
2026-04-20 13:20 28.01413 45.71881 2988 ft 234 kts 70°
2026-04-20 13:21 28.01845 45.73624 2981 ft 230 kts 82°
2026-04-20 13:21 28.01921 45.75436 2890 ft 229 kts 95°
2026-04-20 13:21 28.01554 45.77167 2872 ft 226 kts 115°
2026-04-20 13:21 28.00692 45.78634 2831 ft 225 kts 135°
2026-04-20 13:22 27.99484 45.79746 2859 ft 222 kts 145°
2026-04-20 13:22 27.98228 45.80775 2938 ft 225 kts 145°
2026-04-20 13:22 27.96882 45.81704 3059 ft 229 kts 152°
2026-04-20 13:22 27.95423 45.82465 3132 ft 232 kts 158°
2026-04-20 13:23 27.93863 45.83007 3067 ft 236 kts 165°
2026-04-20 13:23 27.92265 45.83379 3015 ft 233 kts 169°
2026-04-20 13:23 27.90672 45.83623 2994 ft 229 kts 173°
2026-04-20 13:23 27.89082 45.83752 2990 ft 230 kts 176°
2026-04-20 13:24 27.87481 45.83765 2999 ft 231 kts 180°
2026-04-20 13:24 27.85874 45.83663 3000 ft 232 kts 184°
2026-04-20 13:24 27.84264 45.83441 2999 ft 234 kts 187°
2026-04-20 13:24 27.82659 45.83099 2996 ft 235 kts 191°
2026-04-20 13:25 27.81068 45.82636 2996 ft 236 kts 195°
2026-04-20 13:25 27.79505 45.82055 2993 ft 237 kts 199°
2026-04-20 13:25 27.77976 45.81357 2995 ft 237 kts 202°
2026-04-20 13:25 27.76480 45.80566 2992 ft 235 kts 205°
2026-04-20 13:26 27.75089 45.79703 3001 ft 221 kts 210°
2026-04-20 13:26 27.73889 45.78716 2987 ft 206 kts 222°
2026-04-20 13:26 27.73188 45.77404 2977 ft 190 kts 256°
2026-04-20 13:26 27.73189 45.75965 2977 ft 187 kts 292°
2026-04-20 13:27 27.73936 45.74722 3014 ft 197 kts 308°
2026-04-20 13:27 27.74797 45.73492 3004 ft 200 kts 309°
2026-04-20 13:27 27.75676 45.72279 2993 ft 199 kts 310°
2026-04-20 13:27 27.76559 45.71078 2985 ft 198 kts 310°
2026-04-20 13:28 27.77429 45.69901 2986 ft 197 kts 310°
2026-04-20 13:28 27.78307 45.68716 2987 ft 196 kts 310°
2026-04-20 13:28 27.79181 45.67533 2989 ft 196 kts 310°
2026-04-20 13:28 27.80055 45.66352 2993 ft 196 kts 310°
2026-04-20 13:29 27.80930 45.65171 2991 ft 196 kts 310°
2026-04-20 13:29 27.81804 45.63990 2991 ft 193 kts 310°
2026-04-20 13:29 27.82637 45.62865 2988 ft 180 kts 310°
2026-04-20 13:29 27.83431 45.61793 2987 ft 176 kts 310°
2026-04-20 13:30 27.84228 45.60717 2819 ft 181 kts 310°
2026-04-20 13:30 27.85015 45.59654 2609 ft 169 kts 310°
2026-04-20 13:30 27.85742 45.58672 2366 ft 156 kts 310°
2026-04-20 13:30 27.86424 45.57751 2170 ft 153 kts 310°
2026-04-20 13:31 27.87103 45.56835 1968 ft 151 kts 310°
2026-04-20 13:31 27.87770 45.55936 1773 ft 148 kts 310°
2026-04-20 13:31 27.88434 45.55039 1585 ft 149 kts 310°
2026-04-20 13:31 27.89099 45.54149 1395 ft 148 kts 310°
2026-04-20 13:32 27.89712 45.53328 1364 ft 116 kts 310°
2026-04-20 13:32 27.90091 45.52820 1366 ft 58 kts 310°
2026-04-20 13:32 27.90338 45.52488 1364 ft 53 kts 310°
2026-04-20 13:32 27.90541 45.52220 1364 ft 35 kts 317°
2026-04-20 13:33 27.90725 45.52121 1366 ft 15 kts 340°
2026-04-20 13:33 27.90767 45.52104 1366 ft 5 kts 339°
2026-04-20 13:33 27.90800 45.52090 1367 ft 5 kts 339°
2026-04-20 13:33 27.90827 45.52078 1367 ft 4 kts 340°
2026-04-20 13:34 27.90856 45.52066 1369 ft 5 kts 340°
2026-04-20 13:34 27.90884 45.52055 1368 ft 8 kts 341°
2026-04-20 13:34 27.90945 45.52033 1369 ft 11 kts 345°
2026-04-20 13:34 27.91006 45.52048 1368 ft 9 kts 68°
2026-04-20 13:35 27.91020 45.52124 1369 ft 11 kts 58°
2026-04-20 13:35 27.91078 45.52180 1368 ft 8 kts 38°
2026-04-20 13:35 27.91084 45.52186 1369 ft 0 kts 38°